Wind_Speed
3 2 2 2 2 3 3 4 5 5 6 6 5 5 6 6 6 7 7 7 6 6 6 5 5 5 5 5 5 4 4 4 4 4 3 3 2 2 2 2 4 5 5 6 6 6 7 8 7
3 3 3 3 3 3 4 5 5 5 5 6 6 5 5 6 6 6 7 7 7 7 6 5 5 5 5 5 4 4 4 4 4 4 3 3 3 3 3 3 3 4 5 6 7 7 8 8 7
3 3 3 3 3 4 5 5 5 5 5 6 6 6 6 5 6 6 6 6 6 6 6 5 5 5 6 5 5 5 5 5 4 4 3 3 3 3 3 3 3 4 4 5 6 7 7 8 8
3 3 3 3 3 4 5 5 5 6 5 6 6 6 6 6 6 6 6 7 6 6 6 6 6 6 6 5 5 5 6 5 4 4 4 4 4 4 5 4 4 4 4 5 6 6 7 8 8
3 3 3 3 3 4 5 6 6 6 6 6 6 7 6 6 6 6 6 6 7 7 7 6 6 6 6 6 6 6 6 6 5 5 5 5 5 4 5 4 4 4 5 5 6 6 7 8 9
3 3 4 4 4 5 5 5 6 6 7 6 6 7 6 6 6 6 6 6 7 7 7 7 7 6 6 6 6 6 6 6 5 5 5 5 5 5 5 5 5 5 5 6 6 7 7 8 9
2 3 4 5 5 5 5 6 6 6 7 7 7 7 7 6 6 6 7 6 7 7 7 8 7 7 7 7 7 7 7 6 5 5 6 6 6 6 6 6 6 6 6 6 6 7 7 8 8
3 3 4 5 5 5 5 6 6 6 6 6 6 7 7 7 7 7 7 6 6 7 7 8 8 8 7 7 7 7 7 6 6 6 6 6 6 6 6 6 6 6 6 6 6 6 7 7 8
3 4 4 5 5 5 6 5 6 6 6 6 6 6 7 7 7 7 7 7 7 7 7 7 8 7 7 7 7 7 6 6 6 6 7 7 7 6 5 6 6 6 6 6 6 7 7 7 8
4 4 5 6 6 6 6 6 6 6 6 6 6 6 6 7 7 7 7 8 7 7 7 7 7 7 7 7 7 7 6 6 6 6 6 7 7 6 6 6 6 7 6 7 7 7 8 8 8
4 5 6 6 6 6 7 7 7 7 7 7 7 7 7 7 7 7 8 8 7 7 7 7 7 7 7 7 7 7 7 7 6 7 7 6 6 7 7 7 7 7 7 8 8 8 8 8 8
5 5 6 6 6 6 7 7 8 8 8 8 8 7 7 7 7 7 8 8 8 8 7 7 8 7 7 7 7 7 7 7 7 7 6 6 6 7 7 7 7 8 8 9 9 9 8 8 8
5 5 6 6 6 7 7 7 8 8 9 9 9 9 8 8 8 8 8 9 9 8 8 8 8 8 7 7 7 7 7 7 7 7 7 7 6 7 7 7 7 8 8 9 10 10 10 10 9
6 6 6 6 6 6 7 7 8 9 9 10 10 10 10 10 9 9 9 9 9 9 9 8 8 8 8 8 7 7 8 8 7 7 7 7 7 7 7 7 7 7 8 8 10 10 10 10 10
7 7 7 7 6 7 7 7 8 9 9 10 11 11 11 11 11 10 10 10 10 10 10 9 8 8 8 8 8 8 7 7 7 8 8 8 7 7 7 7 8 8 8 9 10 11 11 11 11
7 7 7 8 8 8 8 8 9 9 9 10 10 11 12 12 12 11 11 10 10 10 10 10 9 9 9 8 8 8 8 7 7 8 8 8 8 8 8 8 8 9 9 10 11 11 11 11 11
8 8 9 9 9 9 9 10 10 10 10 10 11 11 12 13 13 13 12 11 11 11 11 10 10 10 10 9 8 8 8 8 8 8 9 8 8 8 8 9 9 9 10 10 10 11 11 11 12
9 9 10 11 10 10 10 10 11 11 11 12 12 12 13 13 13 13 13 13 13 13 13 12 11 11 10 10 10 9 9 9 8 9 9 10 9 9 9 9 9 10 10 11 11 11 12 12 13
11 11 11 12 12 12 12 12 12 12 12 13 13 13 14 14 14 13 13 13 13 14 14 13 12 11 11 10 10 10 10 10 9 9 10 10 10 10 10 10 10 10 11 11 11 12 12 13 13
12 12 13 13 13 13 13 13 13 13 13 13 13 14 15 15 15 14 13 13 14 14 14 13 13 12 11 11 10 10 10 10 11 11 11 11 11 11 11 11 11 11 12 12 12 12 13 13 14
13 13 14 14 14 14 14 14 14 14 15 14 14 14 14 14 14 14 14 14 14 14 13 13 12 12 12 11 11 11 11 11 11 11 11 11 11 11 12 12 12 13 13 13 13 13 14 14 15
13 14 14 14 14 14 15 15 15 15 15 15 15 15 15 14 14 14 15 15 14 14 14 13 13 13 13 13 12 12 12 12 12 11 11 12 12 12 13 13 13 14 14 14 14 15 15 15 16
15 15 15 14 15 15 15 16 16 16 16 16 16 15 15 15 15 15 15 15 15 14 14 14 14 15 15 14 13 14 13 13 13 12 12 13 13 13 13 14 14 14 14 15 15 15 16 16 16
16 16 16 16 16 16 16 17 17 16 16 16 16 16 16 16 15 16 16 16 16 15 15 15 15 15 16 16 15 15 15 15 14 14 14 14 14 14 15 15 15 15 15 15 15 16 16 16 16
17 17 17 17 17 16 17 17 17 16 16 16 16 16 16 16 16 16 16 17 17 17 16 16 16 16 17 17 17 16 16 16 15 15 15 16 16 16 16 16 15 16 16 16 16 16 16 16 17
18 18 18 18 18 17 17 18 17 17 17 16 17 17 17 17 17 18 18 18 18 18 17 17 17 17 17 18 18 17 17 17 16 16 16 16 16 16 16 16 16 16 16 17 17 17 17 17 17
19 19 19 19 19 19 18 17 17 17 17 17 17 17 18 18 18 18 19 19 19 19 18 18 18 18 19 19 19 19 19 18 17 17 17 17 17 18 17 16 17 17 17 17 17 18 17 17 17
20 20 20 20 20 20 19 18 18 17 17 17 17 17 18 19 19 19 20 20 19 19 20 19 19 19 19 20 20 20 20 19 18 18 19 19 19 18 17 17 17 17 17 17 18 18 17 17 17
21 21 21 21 21 20 20 19 19 18 18 18 18 18 18 18 19 20 20 21 21 21 21 21 21 21 21 21 21 21 21 20 20 19 19 20 19 19 18 18 18 18 18 18 18 18 18 18 18
22 22 21 22 22 22 22 21 20 19 19 19 19 19 19 19 19 20 21 21 21 22 22 22 23 22 22 22 21 22 22 22 21 20 19 20 20 19 19 19 19 19 19 19 18 19 19 18 18
Wind_Direction
220 217 213 203 192 199 203 200 199 195 195 198 197 199 200 203 203 202 201 200 196 196 199 201 199 202 205 205 203 200 206 210 210 219 230 240 235 252 242 221 199 202 210 216 219 220 218 221 222
228 223 216 215 213 212 205 203 198 200 201 200 197 196 197 199 199 201 200 202 203 204 205 206 202 206 206 203 203 202 202 204 209 220 232 233 238 246 242 224 205 207 212 217 221 223 224 226 231
229 221 218 221 221 218 214 205 200 197 196 196 197 197 196 197 195 198 199 200 202 205 205 208 208 210 209 209 213 213 210 210 216 223 231 234 242 247 242 226 213 215 218 223 225 227 234 234 236
231 221 222 226 229 223 216 212 205 201 198 193 193 193 196 195 196 200 200 200 205 206 205 210 214 213 214 217 218 217 214 216 223 232 238 240 242 241 243 229 223 222 230 234 235 237 241 240 240
235 227 230 232 231 225 221 218 213 206 204 203 199 198 197 200 203 205 202 205 209 210 212 214 217 217 218 223 224 222 225 228 230 236 242 243 241 245 243 239 240 235 237 241 243 250 245 243 245
241 231 235 237 230 225 225 219 217 213 209 209 209 206 204 206 209 209 206 209 213 216 219 223 222 221 225 227 224 222 227 234 235 238 241 243 244 245 247 252 253 248 248 251 252 253 249 248 253
245 240 238 237 234 229 223 219 217 215 214 210 210 210 211 215 217 216 211 213 217 220 221 223 227 230 233 231 228 228 229 232 237 244 246 244 246 252 253 250 250 254 254 259 262 257 251 253 258
253 252 241 235 234 229 221 220 216 214 217 216 213 213 215 219 223 223 218 216 218 221 222 224 226 229 234 235 235 234 236 238 241 248 249 245 249 256 254 248 244 247 252 254 258 251 252 256 258
256 248 244 237 236 232 222 219 215 214 219 219 222 223 220 220 220 220 219 220 222 222 223 224 227 230 234 235 237 238 240 239 243 250 252 252 254 252 252 250 244 249 251 249 254 253 253 258 262
254 248 245 239 238 237 230 224 224 221 222 224 227 224 220 218 220 220 219 220 223 225 228 228 228 234 236 233 234 238 241 240 243 250 254 255 249 248 252 254 250 253 256 252 259 261 258 260 265
252 251 251 247 241 240 237 228 228 230 229 233 234 228 224 222 223 224 223 222 224 227 228 226 227 232 233 232 234 239 244 247 251 253 253 253 253 250 254 257 258 258 256 259 261 267 266 265 264
254 257 256 252 248 246 241 237 233 232 233 235 237 234 231 229 228 228 227 227 226 227 228 231 232 232 233 234 237 244 249 251 254 253 253 260 264 264 265 264 260 260 257 259 262 263 264 263 264
260 261 259 254 253 249 243 240 238 233 236 237 234 234 233 232 230 229 230 230 231 230 232 234 237 238 237 240 243 247 251 252 251 251 253 262 270 275 275 269 266 256 252 255 258 261 262 263 266
263 262 260 257 256 255 249 243 241 242 241 239 238 237 235 233 234 233 232 234 234 232 234 240 242 239 241 243 247 252 252 249 247 246 250 259 267 273 272 265 265 254 253 254 255 258 260 262 266
260 258 257 258 258 256 253 248 245 245 244 242 240 239 238 235 235 235 234 234 234 234 236 241 243 243 245 249 253 255 250 245 244 248 252 257 263 268 272 270 268 264 264 262 260 261 262 264 266
259 258 257 258 259 255 255 253 249 248 246 244 244 244 243 239 236 237 237 234 234 235 238 240 242 246 246 251 256 253 250 250 249 252 256 258 260 265 267 271 273 271 266 265 263 262 263 266 268
258 258 258 257 258 257 256 255 250 248 249 248 247 245 244 241 238 238 241 238 235 238 241 241 244 246 248 250 254 253 251 251 251 254 257 259 261 264 267 272 275 275 272 274 271 271 269 272 275
260 257 260 260 258 257 257 256 253 252 252 253 251 248 243 242 239 238 240 240 240 241 243 243 246 248 253 253 254 252 252 251 252 258 261 260 262 266 271 275 277 279 280 280 279 278 275 275 277
260 260 263 264 262 258 256 255 256 255 255 254 253 251 248 244 241 240 240 242 242 241 242 244 245 249 251 254 254 254 255 255 255 260 263 263 264 267 273 277 278 281 282 282 281 280 280 279 279
261 263 264 267 266 260 257 257 258 257 257 255 255 253 250 246 243 241 240 241 242 241 243 244 247 247 249 252 255 257 258 259 261 263 264 266 268 270 275 278 279 282 284 283 281 281 281 282 281
261 262 263 265 269 265 262 261 260 258 257 255 253 250 247 245 243 242 242 244 243 242 244 246 246 248 249 252 256 261 261 263 265 266 265 267 269 272 276 279 281 281 282 282 282 282 282 282 283
262 262 263 265 268 267 265 263 260 258 256 253 250 248 245 242 241 242 243 244 245 246 249 249 251 253 253 254 256 260 263 265 266 267 268 271 274 276 278 280 281 281 280 281 282 282 282 282 283
261 262 263 266 268 266 264 262 260 258 255 251 248 246 244 241 240 241 243 243 244 247 250 252 254 254 252 253 255 259 263 264 265 267 270 274 275 276 278 281 283 283 283 283 284 284 284 284 284
263 262 262 264 266 265 262 262 259 258 254 251 248 245 243 240 239 240 242 243 245 248 251 253 254 252 251 252 255 260 262 263 263 266 270 273 275 276 277 280 282 282 283 283 284 285 286 285 286
264 264 265 268 268 266 263 261 259 256 252 250 247 244 244 242 240 240 241 243 245 248 252 254 254 253 253 255 257 258 260 263 263 266 268 272 275 276 278 278 280 281 281 283 284 285 285 286 287
264 262 261 265 266 265 262 260 259 256 252 251 248 246 246 244 243 242 243 246 246 248 252 254 252 252 253 256 257 258 259 262 265 267 268 271 273 277 278 278 280 281 282 283 284 285 286 286 286
262 260 259 261 263 262 260 260 259 256 254 252 250 248 247 245 245 245 245 247 248 249 252 254 251 251 254 257 258 257 259 261 264 267 269 271 274 276 277 279 281 282 282 284 285 286 286 286 286
260 260 258 258 261 263 262 258 257 254 254 254 253 251 249 247 246 246 247 248 249 251 251 252 252 252 256 258 258 258 260 261 265 267 269 271 275 276 276 278 280 281 282 284 286 285 285 287 288
260 258 257 258 259 261 263 262 257 255 254 254 255 253 251 249 248 247 247 248 249 250 251 251 251 252 255 258 259 259 260 261 264 266 269 272 274 275 276 277 279 281 282 284 285 285 285 286 287
257 256 256 257 260 262 262 262 259 258 255 253 252 253 253 252 251 250 250 250 250 250 252 251 251 253 255 257 259 261 260 261 263 266 270 271 270 272 275 276 277 280 282 283 285 285 285 285 285
Height
5867 5867 5868 5869 5871 5871 5870 5871 5871 5871 5871 5872 5872 5872 5873 5874 5875 5877 5875 5874 5875 5875 5875 5875 5875 5876 5876 5876 5876 5876 5876 5876 5876 5876 5876 5875 5875 5875 5874 5874 5874 5874 5875 5875 5876 5876 5876 5877 5877
5866 5867 5868 5869 5869 5869 5870 5870 5870 5870 5871 5871 5871 5872 5872 5872 5873 5873 5873 5873 5874 5874 5874 5875 5875 5875 5875 5875 5876 5876 5876 5876 5876 5876 5875 5875 5875 5875 5874 5874 5874 5874 5875 5875 5875 5875 5876 5876 5876
5866 5866 5868 5868 5868 5869 5869 5869 5869 5869 5869 5870 5871 5871 5871 5872 5872 5872 5872 5873 5873 5873 5874 5874 5875 5875 5875 5875 5875 5875 5875 5875 5875 5875 5875 5875 5875 5874 5874 5874 5874 5874 5874 5874 5874 5874 5875 5875 5875
5865 5866 5867 5868 5867 5867 5868 5868 5868 5868 5869 5869 5870 5870 5870 5871 5871 5872 5872 5872 5872 5873 5873 5873 5874 5874 5874 5874 5874 5875 5875 5875 5875 5875 5875 5874 5874 5874 5874 5873 5873 5873 5873 5873 5873 5873 5874 5874 5874
5865 5865 5866 5866 5866 5866 5867 5867 5867 5867 5868 5868 5869 5869 5869 5870 5870 5870 5871 5871 5872 5872 5872 5873 5873 5874 5874 5874 5874 5874 5874 5874 5875 5874 5874 5874 5874 5873 5872 5873 5873 5873 5873 5873 5873 5873 5873 5873 5873
5864 5865 5866 5865 5865 5866 5866 5866 5866 5866 5867 5867 5868 5868 5868 5869 5869 5869 5870 5870 5870 5871 5871 5872 5872 5873 5873 5873 5873 5873 5874 5874 5874 5874 5874 5873 5873 5873 5872 5872 5872 5872 5872 5872 5871 5871 5872 5872 5871
5864 5864 5864 5864 5864 5864 5865 5865 5865 5865 5866 5866 5867 5867 5867 5868 5868 5869 5869 5869 5869 5870 5870 5871 5871 5872 5872 5872 5872 5873 5873 5873 5873 5873 5873 5873 5872 5872 5872 5872 5871 5871 5871 5871 5870 5870 5870 5870 5870
5863 5864 5863 5863 5863 5863 5864 5864 5864 5864 5865 5865 5866 5866 5867 5867 5867 5867 5868 5868 5868 5869 5869 5870 5870 5871 5871 5871 5871 5872 5872 5872 5872 5872 5872 5872 5871 5871 5871 5871 5870 5870 5870 5870 5870 5869 5869 5869 5869
5861 5863 5862 5862 5862 5862 5862 5863 5863 5863 5864 5864 5864 5865 5865 5866 5866 5866 5867 5867 5868 5868 5868 5869 5869 5870 5870 5870 5870 5871 5871 5871 5871 5871 5871 5871 5871 5870 5870 5870 5870 5870 5869 5869 5869 5868 5868 5868 5867
5860 5861 5861 5861 5861 5861 5861 5861 5862 5862 5863 5863 5863 5864 5864 5865 5865 5865 5866 5866 5866 5867 5867 5868 5868 5869 5869 5869 5869 5870 5870 5870 5870 5870 5870 5869 5869 5869 5869 5869 5869 5868 5868 5868 5867 5867 5866 5866 5866
5859 5859 5859 5859 5859 5859 5859 5860 5860 5861 5862 5862 5862 5863 5863 5863 5864 5864 5865 5865 5865 5866 5866 5867 5867 5868 5868 5868 5868 5869 5869 5869 5869 5868 5868 5868 5868 5868 5868 5868 5868 5867 5867 5866 5866 5865 5865 5864 5864
5857 5857 5857 5857 5857 5858 5858 5859 5859 5860 5860 5860 5861 5861 5862 5862 5863 5863 5863 5864 5864 5865 5865 5866 5866 5867 5867 5867 5867 5867 5868 5868 5868 5867 5867 5867 5867 5867 5866 5866 5866 5866 5865 5865 5864 5864 5863 5863 5862
5856 5856 5856 5856 5856 5856 5856 5857 5857 5858 5858 5858 5859 5860 5860 5861 5861 5862 5862 5863 5863 5864 5864 5865 5865 5866 5866 5866 5866 5866 5866 5866 5866 5866 5866 5866 5865 5865 5865 5865 5864 5864 5863 5862 5862 5862 5862 5861 5861
5854 5854 5854 5854 5854 5854 5855 5855 5856 5856 5856 5857 5857 5858 5858 5859 5860 5860 5861 5861 5862 5862 5863 5864 5864 5864 5864 5865 5865 5865 5865 5865 5865 5865 5865 5864 5864 5864 5863 5863 5863 5862 5861 5860 5860 5860 5860 5859 5859
5852 5853 5853 5853 5853 5853 5853 5854 5854 5854 5854 5855 5855 5856 5856 5857 5857 5858 5859 5860 5860 5861 5862 5862 5862 5863 5863 5863 5863 5863 5863 5863 5863 5863 5863 5863 5862 5862 5862 5861 5861 5860 5859 5859 5858 5858 5858 5857 5857
5851 5851 5852 5851 5851 5851 5853 5852 5852 5852 5852 5852 5853 5853 5854 5855 5856 5856 5857 5858 5858 5859 5860 5860 5860 5861 5861 5861 5861 5862 5862 5862 5862 5862 5861 5861 5861 5860 5860 5860 5859 5858 5857 5857 5856 5856 5855 5855 5854
5849 5850 5849 5850 5849 5849 5850 5850 5850 5849 5850 5850 5851 5851 5852 5853 5853 5854 5855 5855 5856 5857 5857 5858 5858 5859 5859 5859 5860 5860 5860 5860 5860 5860 5859 5859 5859 5859 5858 5857 5857 5856 5855 5855 5854 5854 5853 5852 5852
5847 5847 5847 5847 5847 5847 5847 5847 5847 5847 5847 5848 5848 5848 5849 5850 5851 5851 5852 5853 5853 5854 5855 5856 5856 5857 5857 5857 5857 5858 5858 5858 5858 5857 5857 5857 5857 5856 5856 5855 5854 5854 5853 5852 5851 5851 5850 5850 5849
5844 5844 5844 5844 5844 5844 5844 5844 5844 5844 5844 5845 5845 5846 5846 5847 5848 5849 5849 5850 5851 5851 5852 5853 5854 5854 5855 5855 5855 5855 5855 5855 5855 5855 5855 5855 5854 5854 5853 5853 5852 5851 5850 5850 5849 5848 5848 5847 5846
5841 5841 5841 5841 5841 5841 5841 5841 5841 5841 5841 5842 5842 5842 5843 5844 5845 5846 5846 5847 5848 5849 5849 5850 5851 5852 5852 5852 5853 5853 5853 5853 5853 5852 5852 5852 5851 5851 5850 5850 5849 5848 5848 5847 5846 5845 5844 5844 5843
5837 5838 5838 5838 5837 5837 5838 5838 5838 5838 5838 5838 5838 5839 5839 5840 5841 5842 5843 5844 5845 5846 5847 5847 5848 5848 5849 5849 5850 5850 5850 5850 5850 5850 5849 5849 5849 5848 5848 5847 5846 5845 5845 5844 5843 5842 5841 5840 5839
5834 5834 5834 5834 5834 5834 5834 5834 5834 5834 5834 5834 5835 5835 5836 5837 5838 5839 5840 5841 5842 5843 5844 5844 5845 5846 5846 5847 5847 5848 5848 5847 5847 5847 5846 5846 5845 5845 5845 5844 5843 5842 5841 5840 5839 5838 5837 5836 5835
5829 5829 5830 5829 5829 5830 5830 5830 5831 5829 5829 5830 5830 5831 5832 5833 5834 5835 5836 5837 5839 5840 5840 5841 5842 5842 5843 5844 5844 5844 5844 5844 5844 5844 5843 5843 5842 5842 5841 5840 5840 5839 5838 5837 5836 5835 5833 5832 5831
5825 5825 5825 5825 5825 5826 5826 5825 5826 5825 5825 5825 5826 5827 5828 5829 5830 5831 5832 5833 5834 5836 5836 5837 5838 5838 5839 5840 5840 5841 5841 5840 5840 5840 5840 5840 5839 5838 5837 5837 5836 5835 5834 5833 5832 5830 5829 5828 5826
5820 5821 5821 5821 5821 5821 5821 5820 5821 5820 5820 5820 5821 5822 5823 5824 5825 5827 5828 5829 5830 5831 5832 5833 5834 5834 5835 5835 5836 5836 5836 5836 5836 5836 5836 5836 5835 5834 5833 5832 5832 5831 5829 5828 5827 5826 5824 5823 5822
5815 5816 5817 5817 5817 5816 5815 5815 5816 5815 5815 5815 5816 5817 5818 5819 5821 5822 5823 5824 5826 5827 5828 5828 5829 5830 5830 5831 5831 5832 5832 5832 5832 5832 5832 5831 5831 5830 5829 5828 5827 5826 5825 5824 5822 5821 5819 5818 5816
5809 5809 5810 5811 5810 5810 5811 5811 5811 5810 5810 5811 5811 5812 5813 5814 5816 5817 5818 5819 5820 5822 5823 5823 5824 5825 5826 5826 5827 5827 5827 5827 5827 5827 5827 5826 5826 5825 5824 5824 5823 5822 5820 5819 5817 5816 5814 5813 5811
5804 5803 5804 5804 5804 5805 5806 5806 5806 5805 5806 5806 5807 5807 5808 5809 5810 5811 5812 5814 5815 5816 5817 5818 5819 5820 5820 5821 5821 5822 5822 5822 5822 5822 5822 5821 5821 5820 5820 5819 5818 5817 5815 5814 5813 5811 5809 5808 5806
5798 5798 5798 5798 5799 5799 5800 5803 5801 5800 5801 5801 5801 5802 5802 5804 5805 5806 5807 5808 5809 5810 5811 5812 5813 5814 5815 5815 5816 5816 5817 5817 5817 5816 5816 5816 5815 5815 5814 5814 5813 5812 5810 5809 5807 5806 5804 5803 5801
5791 5791 5792 5793 5793 5793 5794 5797 5795 5795 5795 5795 5796 5796 5797 5798 5799 5800 5801 5802 5803 5804 5805 5806 5807 5808 5809 5809 5810 5810 5811 5811 5811 5811 5811 5810 5810 5809 5809 5808 5807 5806 5805 5804 5802 5800 5799 5797 5796